Wind_Speed
25 25 24 23 22 22 22 22 21 20 19 19 18 18 18 18 17 16 14 13 12 12 12 12 13 14 14 14 14 14 14 15 15 15 16 15 14 13 12 12 12 12 13 13 14 14 14 14 14 14 15 16 16 16 15 15 16 17 19 20 21 22 22 22 23 23 24 26 28 30 32 33 35 37 38 40 41 43 45 47 48 49 50 50 48
25 25 25 24 23 22 22 22 22 20 20 19 19 19 19 18 18 17 16 14 13 12 13 14 14 14 14 14 14 15 15 15 16 16 16 15 14 13 12 12 12 12 13 13 13 13 13 13 13 14 15 15 15 15 15 15 16 18 19 20 21 22 22 23 24 25 26 28 29 31 33 34 36 38 40 41 43 45 47 48 50 51 53 53 51
25 25 25 24 23 22 22 22 22 21 20 20 20 21 21 19 18 18 17 16 14 13 14 14 14 14 14 14 14 15 15 16 16 16 16 15 14 13 12 12 12 12 12 13 13 12 12 13 13 13 14 14 14 14 15 16 17 18 19 20 20 21 22 23 25 27 28 29 31 32 34 36 37 39 41 42 44 47 49 50 51 53 55 55 54
26 26 26 25 24 23 22 22 22 21 21 21 22 22 22 20 20 19 18 17 15 14 15 14 14 14 14 14 14 15 16 16 17 16 16 15 14 13 12 12 11 11 12 12 12 12 12 12 12 13 13 14 14 14 15 16 17 18 18 19 19 20 21 23 25 27 29 30 31 33 35 38 39 41 42 44 46 48 50 51 53 55 56 57 57
27 27 26 26 24 24 23 22 22 22 22 22 23 24 23 22 21 21 20 18 16 15 15 15 14 14 14 14 15 15 16 17 17 16 15 14 13 13 12 11 11 11 11 11 11 11 11 11 11 12 13 13 14 14 15 16 17 17 18 18 19 20 22 24 25 28 29 31 33 34 37 39 41 42 44 46 47 49 52 54 55 56 58 60 60
27 28 27 26 25 25 24 24 24 24 23 24 25 25 24 23 23 22 20 19 17 15 15 15 15 15 14 14 15 16 17 17 17 16 15 14 13 12 11 11 11 10 10 10 10 10 11 11 11 11 12 13 13 14 15 16 16 17 17 18 19 21 23 25 26 28 30 32 34 36 38 40 42 44 45 47 48 50 53 55 56 58 60 62 61
28 28 27 26 26 26 25 26 26 26 25 25 26 26 25 25 24 23 21 20 18 16 16 16 16 14 14 14 15 16 17 17 17 16 15 13 13 12 11 11 10 10 9 9 9 10 10 10 10 10 11 12 13 14 15 16 17 17 17 19 20 22 24 26 27 29 31 33 35 36 38 41 43 45 46 47 49 51 54 57 58 59 61 63 63
29 29 28 27 26 26 27 27 28 28 27 27 27 26 26 25 24 23 23 22 19 18 17 16 15 13 14 14 15 16 16 17 17 16 14 13 12 11 11 10 10 9 9 9 9 9 9 9 9 10 11 12 13 14 15 16 17 17 18 20 22 23 25 27 28 30 31 33 35 37 39 41 44 46 47 48 50 52 55 57 59 61 62 64 63
30 30 29 27 26 27 27 28 28 29 29 28 28 28 26 25 25 25 26 24 22 20 17 16 14 13 13 13 14 15 16 17 17 16 14 13 12 11 10 10 9 9 8 8 8 8 8 8 9 9 10 11 12 13 15 16 17 18 19 20 22 24 25 27 29 30 31 34 36 38 40 41 44 47 48 50 51 53 55 57 60 62 63 64 63
31 30 29 28 27 27 28 29 29 29 29 28 29 29 27 25 26 27 28 27 24 21 19 16 13 12 12 12 14 15 16 17 16 15 14 13 12 11 10 10 9 9 8 8 8 8 7 8 8 9 10 11 12 14 15 16 17 19 20 22 23 25 26 28 29 31 33 34 37 39 40 42 44 47 49 50 51 53 55 58 60 62 63 64 64
31 31 30 28 28 28 29 30 30 29 29 28 29 30 28 25 25 26 28 28 25 23 23 20 14 11 12 12 13 15 15 16 17 15 15 13 12 12 11 10 9 9 8 8 7 7 7 7 8 9 10 11 12 14 15 17 18 20 22 24 25 26 28 29 31 32 34 35 37 39 41 42 44 46 49 50 52 53 55 58 60 62 63 65 66
31 31 30 29 29 29 30 30 30 29 29 29 30 29 26 24 23 24 26 26 24 25 25 21 14 11 12 12 14 15 16 17 16 15 15 14 12 12 12 10 9 8 8 8 7 7 7 7 8 9 9 10 12 13 15 17 18 20 22 23 25 26 28 30 32 33 35 36 37 39 41 42 44 46 48 51 52 53 55 57 59 61 62 63 65
31 31 30 30 29 30 30 30 30 30 29 28 28 26 25 24 24 25 26 25 26 25 22 17 13 12 11 12 15 16 16 16 16 15 15 13 13 13 12 10 9 8 8 7 7 8 7 7 8 8 9 10 11 13 15 17 18 20 21 23 24 26 28 29 31 33 35 36 37 38 40 42 43 45 47 50 52 53 54 55 57 60 62 62 63
31 31 31 31 30 30 31 31 30 30 29 27 26 25 26 26 26 26 26 26 28 24 19 16 14 11 10 13 16 16 15 15 15 14 14 13 12 12 11 10 9 8 9 8 8 8 7 7 8 8 9 10 12 13 15 16 18 19 21 22 24 26 27 29 31 33 34 36 38 39 40 41 43 44 46 48 50 51 53 54 57 60 62 62 62
31 31 31 31 32 32 32 32 31 30 29 28 27 26 26 26 25 25 26 27 27 21 17 17 15 11 11 14 15 15 15 15 14 14 14 13 12 12 10 9 9 10 10 9 8 7 7 7 7 8 9 10 12 13 14 15 17 18 20 22 24 25 27 28 30 32 34 36 38 39 40 40 41 43 44 45 46 48 50 53 56 60 62 62 61
31 31 31 32 32 33 33 33 32 31 30 29 28 27 27 27 26 26 26 27 24 19 18 18 16 12 12 14 15 15 15 15 15 15 14 14 13 11 9 10 10 11 10 9 8 7 7 7 7 8 9 10 12 13 14 15 17 18 20 22 23 25 27 28 30 32 33 35 37 38 39 39 39 39 40 41 43 46 49 52 55 57 60 62 62
30 30 30 31 32 33 33 33 32 30 29 28 27 26 27 27 26 24 24 23 21 19 20 20 16 13 13 15 16 17 17 16 16 15 14 14 12 10 10 11 12 11 10 9 8 8 7 7 7 8 9 10 12 13 14 15 17 18 20 22 23 25 26 27 29 31 32 34 35 36 36 36 35 35 36 38 41 45 49 52 54 56 60 62 62
28 28 28 29 30 30 31 31 30 29 27 26 25 25 27 26 23 21 21 21 20 20 20 19 16 14 14 16 17 18 18 17 16 15 14 13 12 12 12 12 11 10 10 9 9 8 7 7 7 8 10 11 12 13 14 16 17 19 20 22 23 25 26 28 29 30 32 33 34 34 35 35 35 36 37 38 40 43 46 50 52 55 58 60 61
23 24 26 27 27 29 31 31 30 30 29 26 25 27 28 25 21 19 19 21 23 22 20 18 16 14 15 17 19 20 19 17 16 15 14 14 14 14 13 12 11 10 10 10 9 8 7 7 8 9 10 11 12 13 15 16 18 20 21 23 24 25 27 29 31 32 34 34 35 36 37 37 38 38 38 38 39 41 43 46 49 53 56 57 59
22 23 24 25 28 32 35 34 32 31 30 27 26 28 28 26 22 19 19 22 24 23 20 19 17 15 15 18 20 20 19 17 16 15 15 15 15 14 13 12 11 11 11 10 9 8 7 7 8 9 10 12 13 14 15 17 19 21 23 24 25 26 28 29 31 33 35 36 38 39 40 40 39 39 38 37 38 39 40 42 46 49 53 55 56
23 23 23 23 26 30 31 30 30 31 30 29 29 30 28 25 23 21 20 22 24 24 22 21 19 16 16 18 20 20 19 17 16 16 16 16 16 14 13 12 12 12 12 11 9 8 7 7 8 9 11 12 13 14 16 18 20 22 23 25 26 27 29 30 32 34 36 37 39 40 40 40 39 38 38 37 37 38 38 40 43 45 49 52 54
22 22 21 21 23 25 26 27 28 29 30 32 32 30 27 25 24 23 22 22 24 25 24 22 19 16 17 18 19 19 19 17 17 17 17 17 16 15 14 13 13 13 12 11 10 9 8 8 8 10 11 12 14 15 17 19 20 22 23 25 26 27 29 31 32 34 36 38 39 40 40 40 39 38 38 37 37 37 37 38 41 42 45 49 51
21 21 20 20 22 25 27 28 27 28 29 31 31 29 26 26 25 24 23 22 22 24 25 22 18 16 17 18 19 19 19 18 17 18 18 17 16 15 14 14 14 13 12 12 11 9 8 8 8 10 11 13 14 16 18 19 21 22 23 24 26 27 28 30 32 34 37 38 39 40 40 40 39 38 38 37 37 37 37 38 39 40 43 46 49
19 18 18 19 21 24 28 30 30 30 30 29 28 27 25 25 24 23 21 21 21 23 24 21 17 16 17 18 19 20 19 18 18 19 19 18 16 15 15 15 15 14 13 12 11 9 8 8 8 10 11 13 15 16 18 20 21 22 23 24 26 27 28 30 33 35 37 39 40 40 40 39 39 38 38 38 38 38 38 37 38 39 40 43 47
17 16 17 19 21 23 27 30 31 30 30 29 28 28 26 25 23 22 22 21 20 20 21 19 16 17 18 19 20 20 19 19 19 19 19 17 16 16 16 16 16 15 14 13 11 10 8 8 9 10 11 13 15 17 18 20 21 22 23 24 25 27 29 31 33 35 37 38 40 41 40 39 38 37 37 37 38 38 38 37 37 38 39 41 44
16 17 18 19 21 23 27 30 30 30 30 30 29 28 27 25 23 22 20 17 15 16 17 17 17 18 19 20 21 21 20 19 19 19 19 18 17 16 17 17 16 15 14 13 12 10 9 9 9 10 11 13 15 17 19 20 21 22 23 24 26 28 30 32 33 34 37 39 40 41 40 39 38 37 37 37 37 38 38 38 38 38 39 41 43
18 19 19 20 21 22 24 26 28 28 29 28 27 27 26 26 24 21 17 15 14 15 16 17 18 19 20 21 22 21 20 20 20 20 20 19 18 17 18 18 17 16 15 13 12 11 10 9 9 10 11 13 15 17 19 20 21 22 23 25 26 28 29 31 32 34 37 39 40 40 39 38 37 36 36 37 38 38 38 37 38 38 39 41 43
19 20 21 21 22 22 22 24 26 28 28 28 27 27 26 25 23 20 19 18 18 18 17 17 18 19 20 22 22 21 21 21 21 21 21 19 19 18 19 18 17 16 15 14 13 12 11 10 10 11 12 13 15 17 19 20 22 23 24 24 26 27 28 31 33 35 37 38 39 39 39 38 37 36 37 37 38 38 38 37 37 37 39 41 43
20 20 21 22 23 23 24 25 27 28 29 28 27 25 23 21 20 19 20 20 19 19 18 18 19 19 21 22 23 22 22 22 23 23 22 20 20 19 19 18 17 17 16 15 14 13 12 11 11 12 12 14 16 17 19 21 22 23 24 24 25 27 28 30 32 33 35 37 39 39 38 37 37 37 36 37 37 38 38 38 37 37 37 39 41
19 20 21 23 25 26 26 28 29 29 29 28 27 24 22 22 22 21 20 19 19 20 20 20 21 22 23 24 23 23 24 25 25 24 23 21 20 20 19 19 18 17 17 16 15 14 12 12 12 12 13 15 16 17 19 21 21 23 23 24 25 26 28 29 31 32 34 36 38 39 38 37 37 36 36 37 37 38 38 38 37 36 37 38 40
20 21 21 24 26 27 28 28 29 29 30 29 28 26 24 23 23 22 20 19 20 21 21 22 24 25 26 26 25 26 27 27 26 25 23 21 21 21 20 19 18 18 18 17 16 14 13 13 13 13 13 15 16 18 19 21 21 22 23 23 25 26 28 29 31 32 34 35 37 38 37 37 37 36 37 38 38 38 39 38 37 36 36 37 39
23 23 23 25 27 28 28 28 28 29 30 29 27 25 25 24 24 23 21 21 21 22 23 24 25 26 27 27 27 29 29 27 25 25 24 22 22 21 20 19 19 19 19 18 16 15 14 14 14 14 14 16 17 18 20 21 22 23 23 23 25 26 28 29 30 31 33 35 36 37 37 37 37 37 38 38 38 38 39 39 39 38 35 35 36
25 25 25 27 28 28 27 28 27 27 27 27 26 25 25 25 24 22 21 22 23 24 25 25 25 26 27 28 29 30 28 26 25 25 24 23 22 21 21 20 20 20 19 18 17 16 15 14 14 14 15 16 17 18 20 21 22 23 23 23 24 26 27 29 30 31 33 34 35 37 37 37 36 36 38 37 37 37 38 40 41 39 36 34 34
26 26 26 26 27 27 26 27 27 26 25 25 25 26 26 25 23 21 21 22 23 24 24 25 25 26 27 27 28 28 27 25 25 25 25 23 23 22 22 21 20 20 19 19 18 16 15 15 15 15 16 16 17 18 20 21 22 23 22 23 24 25 27 28 30 31 32 33 34 35 35 35 35 35 37 37 35 36 37 39 41 41 38 34 33
26 25 25 26 27 27 27 27 28 27 27 27 27 28 27 25 24 23 23 22 23 23 24 24 24 24 25 26 27 28 27 26 26 27 25 24 24 24 23 21 21 20 20 19 18 17 17 16 16 16 16 17 17 18 20 21 22 22 23 23 24 25 26 28 29 30 31 32 33 33 33 34 33 33 34 35 34 35 37 38 39 41 40 35 32
25 25 25 26 27 28 28 28 28 28 27 27 27 27 26 25 25 24 24 23 24 25 25 25 24 23 25 26 29 29 28 27 28 28 27 25 25 24 23 22 21 21 21 20 19 18 18 17 17 17 17 17 18 19 20 21 22 22 23 23 24 25 26 27 28 29 30 31 32 32 32 32 32 32 33 33 32 33 35 36 37 39 40 38 33
23 23 24 24 25 27 28 28 28 28 26 25 26 26 26 26 26 26 26 26 25 25 26 26 25 26 27 28 30 30 29 29 29 29 27 26 26 24 23 22 21 21 22 21 20 20 19 18 18 18 17 17 18 19 19 20 21 22 23 23 23 24 25 26 28 28 29 29 30 31 32 32 33 33 33 32 31 31 32 34 34 35 39 40 37
21 21 21 22 24 26 27 28 29 28 27 26 26 26 25 26 26 26 27 27 28 28 28 27 26 27 28 29 30 30 30 30 31 30 28 27 25 24 23 23 22 22 23 22 21 21 20 20 19 19 18 18 18 19 19 20 21 22 23 23 23 24 25 26 27 28 29 29 30 31 32 32 32 32 31 30 30 30 31 32 32 33 36 40 41
21 20 21 22 24 26 28 29 30 28 26 25 25 25 25 23 23 24 26 27 28 29 30 29 26 26 29 31 32 32 32 31 31 29 28 27 25 25 25 24 23 23 23 23 22 21 21 21 20 20 19 19 19 19 19 20 21 22 23 23 23 24 25 26 27 28 29 29 29 30 30 30 30 30 29 29 29 29 29 29 30 32 35 38 40
20 20 21 23 25 28 30 30 29 28 26 26 26 26 25 23 23 25 27 28 27 28 29 29 27 28 31 33 34 33 33 32 31 30 29 27 26 25 25 25 24 24 24 23 23 22 22 22 22 21 21 20 19 19 20 20 21 22 23 23 23 24 25 25 27 27 28 28 28 28 28 29 29 29 28 28 27 26 26 27 29 32 33 34 37
19 19 21 22 25 27 29 29 27 27 27 26 25 23 22 23 24 25 27 28 28 28 28 28 27 29 32 33 33 33 33 32 31 31 30 28 26 26 26 25 25 25 25 24 23 23 23 23 23 22 21 20 19 20 20 21 21 22 23 23 23 24 24 25 26 27 28 28 28 28 28 28 28 28 28 27 24 22 22 24 27 29 30 31 33
20 20 21 23 25 26 27 27 27 27 25 22 19 19 19 22 24 25 25 27 28 28 28 27 27 29 31 32 32 32 32 32 32 31 30 28 26 25 25 25 25 25 25 24 24 24 24 24 24 23 22 21 20 20 20 21 22 22 23 24 24 24 24 25 26 27 28 28 28 28 28 27 27 27 27 26 24 20 19 21 24 26 27 29 30
22 23 23 24 25 26 27 27 26 24 21 19 18 19 20 22 23 24 25 26 27 27 26 26 26 28 31 32 33 33 33 33 33 33 31 29 27 25 25 25 26 26 26 25 25 25 25 25 25 24 23 22 21 21 21 21 22 23 24 24 25 25 25 25 26 27 28 28 28 28 28 28 27 26 26 25 24 20 18 18 21 23 24 26 27
21 21 22 23 23 24 24 24 22 21 20 20 20 20 19 20 21 22 23 24 24 24 24 25 27 30 33 34 35 35 35 34 34 33 31 29 27 26 25 26 27 27 26 26 26 26 26 26 26 25 24 23 22 21 21 21 22 23 24 25 26 26 25 25 26 26 27 28 28 28 28 28 27 27 26 25 23 20 17 17 18 20 21 23 25
20 20 20 22 22 22 21 20 20 21 22 22 21 20 18 18 19 21 23 24 24 24 24 25 27 31 34 35 35 35 34 33 33 33 32 30 28 26 26 27 27 28 27 27 26 26 26 26 26 25 24 23 22 22 21 22 22 23 24 25 26 26 26 26 26 26 27 27 28 28 28 27 27 27 26 25 23 21 18 18 18 19 20 21 22
21 19 19 20 21 22 22 22 23 24 24 25 25 22 19 17 18 20 22 23 23 22 22 24 27 31 33 34 34 34 33 33 34 34 33 30 28 27 27 28 28 28 28 28 27 27 27 26 26 25 24 23 23 22 22 22 23 24 25 25 26 26 26 27 27 27 27 27 27 27 28 27 26 26 25 25 23 20 18 17 17 17 18 20 21
22 21 21 21 22 23 25 26 26 27 27 28 27 25 22 20 20 21 22 23 22 22 22 24 27 31 33 34 34 33 32 33 35 35 33 31 29 28 29 29 29 29 29 29 28 28 27 26 26 25 25 24 23 23 23 23 24 24 25 26 27 27 27 27 28 28 27 27 27 27 27 26 26 25 25 24 23 20 18 17 16 16 16 18 20
22 22 23 23 23 25 28 29 29 29 29 29 28 28 26 25 23 22 22 23 24 23 22 24 27 32 34 35 34 32 32 34 36 35 34 32 30 30 30 30 30 29 30 29 29 28 27 27 26 26 25 24 24 24 24 25 25 25 26 26 27 27 27 27 28 28 28 28 27 27 27 26 25 24 24 24 23 21 19 18 18 18 18 19 20
21 22 23 23 23 25 28 31 32 31 29 29 29 30 28 26 24 22 23 24 24 24 24 24 27 31 34 35 33 32 33 35 36 36 34 32 31 31 31 31 30 30 30 29 29 29 28 28 27 26 25 25 25 25 26 26 26 26 26 27 27 27 27 27 28 28 28 28 28 27 26 26 25 24 23 23 23 22 21 20 20 19 20 20 20
22 22 23 23 22 22 23 26 28 29 29 28 29 29 28 26 25 25 25 25 25 25 25 25 27 30 33 33 33 32 34 35 36 35 34 32 31 31 31 30 29 29 29 29 29 30 29 28 27 26 26 27 27 27 27 27 27 26 27 27 27 27 27 27 28 28 28 28 28 27 26 26 25 24 23 23 23 23 22 21 21 21 21 21 20
22 22 22 22 22 22 22 22 24 26 26 27 27 28 27 26 26 27 26 26 25 25 25 26 27 29 31 32 32 33 34 35 35 35 33 32 30 29 29 29 28 28 28 29 30 30 29 28 28 28 28 28 28 28 28 27 27 26 26 27 27 27 28 28 28 29 29 28 28 27 26 26 26 25 24 23 23 24 24 23 22 21 21 21 21
Wind_Direction
221 222 222 222 223 225 227 227 228 229 230 230 230 231 231 230 232 236 240 244 251 261 271 276 277 278 278 279 280 281 280 279 277 273 271 270 273 279 286 293 298 301 305 309 313 318 320 317 317 319 321 322 324 327 330 333 335 337 338 339 340 340 340 341 343 345 346 344 342 341 339 340 342 343 343 344 343 342 344 346 345 344 343 341 339
223 224 223 222 222 224 226 227 228 230 231 231 231 230 230 230 232 235 238 243 252 265 275 277 278 280 281 282 282 282 282 279 276 272 271 272 276 282 288 294 298 302 307 311 315 317 316 316 318 321 322 324 327 330 334 337 338 339 339 340 340 340 340 342 344 344 344 344 342 340 340 341 342 343 344 344 344 344 345 347 347 346 345 343 341
223 223 222 221 222 223 225 227 229 230 230 231 230 229 229 231 233 235 238 245 255 267 274 276 278 282 284 284 284 282 280 276 272 271 271 274 278 283 289 293 298 304 308 311 313 314 313 315 319 321 323 325 329 333 337 339 339 338 338 338 338 340 342 343 344 342 342 342 341 340 340 340 342 344 344 345 346 346 345 348 349 347 345 344 342
222 221 221 220 221 222 224 227 228 228 229 230 229 228 230 231 233 236 240 247 257 266 271 274 279 283 285 285 284 281 277 273 271 271 272 275 279 283 287 292 297 304 308 310 310 310 311 315 320 322 324 326 330 335 337 338 338 336 335 336 336 340 343 344 343 342 341 340 340 341 341 341 343 344 343 345 348 347 346 349 351 348 344 345 345
222 221 220 220 220 222 225 226 226 226 228 229 228 229 231 233 234 237 241 248 257 264 269 274 278 283 287 288 285 281 277 273 271 270 271 274 278 281 285 291 297 303 306 306 306 308 310 314 320 322 325 328 331 335 336 336 334 332 333 334 336 340 343 343 343 343 341 339 341 343 343 343 343 343 344 346 347 347 347 350 351 348 345 346 348
221 220 219 220 220 222 225 226 226 226 228 229 229 230 233 235 236 239 243 250 256 263 268 272 277 283 289 290 285 281 276 272 270 269 271 272 275 278 283 289 296 300 303 303 303 305 308 313 319 323 326 329 331 333 334 332 330 329 332 334 336 340 342 343 344 343 341 341 342 344 345 344 342 343 346 347 347 347 348 349 350 349 346 348 349
220 218 217 219 221 223 225 227 227 228 230 231 231 232 235 237 238 240 245 250 255 260 264 269 275 283 289 289 284 278 273 271 269 268 269 270 272 277 283 288 294 297 297 298 298 301 305 311 318 323 326 328 330 331 329 327 326 328 331 334 338 340 341 343 344 344 343 343 344 345 346 345 343 344 346 346 347 349 349 348 349 349 348 349 350
220 217 217 219 221 223 226 228 229 231 233 235 235 235 237 240 242 243 246 249 250 253 260 268 276 284 289 288 282 276 272 270 268 267 267 268 270 275 281 286 290 291 291 290 292 298 303 309 318 323 325 326 327 327 325 323 325 328 331 335 339 340 342 344 344 345 345 345 345 346 347 345 344 344 345 346 348 349 350 348 348 349 349 349 351
220 218 218 219 221 224 227 230 232 234 236 239 240 238 237 239 244 246 247 249 248 246 251 262 273 281 288 287 281 276 272 269 267 266 265 266 269 273 277 280 283 283 283 285 289 295 301 309 317 322 323 323 324 324 322 322 324 328 332 336 339 341 343 344 344 345 347 347 346 346 346 346 345 344 345 347 348 348 349 348 348 349 349 348 351
221 220 220 220 223 225 228 231 234 236 240 243 244 244 241 239 242 246 248 250 249 245 245 249 259 272 281 283 279 275 271 269 266 264 264 265 267 270 273 276 278 277 278 280 285 292 300 308 315 319 320 320 322 322 322 324 327 330 334 337 340 342 344 345 345 346 348 349 348 345 345 346 345 344 345 346 348 348 347 347 348 349 349 348 350
223 223 223 223 224 226 229 233 236 239 243 246 245 244 245 245 246 249 253 254 250 247 244 238 236 254 271 275 276 275 272 268 264 262 265 265 267 270 272 273 272 271 273 277 282 289 299 307 311 315 317 319 322 322 324 328 331 334 338 341 343 344 345 345 346 347 348 349 348 345 345 345 345 344 344 345 347 347 347 347 347 348 349 349 350
224 225 225 225 226 228 231 233 237 241 245 249 247 246 250 254 256 259 263 264 262 258 252 242 234 249 267 274 275 276 272 265 262 263 265 266 269 271 271 271 269 268 272 277 283 290 299 304 305 309 314 317 320 322 326 331 334 338 341 343 344 345 344 345 346 346 347 347 347 346 345 344 345 344 344 345 346 347 346 346 346 347 350 351 350
226 227 227 228 228 232 234 235 238 242 247 251 253 254 259 262 263 267 270 276 280 274 263 255 253 259 268 274 274 273 269 263 262 264 266 269 272 272 274 277 273 271 275 282 287 290 293 294 295 304 311 314 318 323 329 332 335 340 342 343 345 344 344 344 345 345 346 346 347 346 345 344 344 344 345 345 345 345 345 344 345 347 350 351 352
229 229 229 230 231 233 236 238 239 242 246 252 254 257 261 262 266 270 273 280 285 278 259 253 259 263 268 272 270 267 264 261 261 263 265 268 268 271 275 274 269 274 282 283 280 279 281 282 288 299 306 310 318 325 329 333 337 341 342 343 345 344 343 344 344 345 346 345 345 345 345 345 344 344 344 344 343 343 343 343 346 348 350 351 353
231 231 230 231 232 235 238 240 242 242 246 251 254 257 261 265 270 273 276 281 282 270 251 249 257 263 268 269 266 262 259 257 257 259 261 261 264 266 266 262 267 279 281 274 267 267 271 276 284 295 302 310 320 325 329 334 338 341 343 343 343 343 343 344 345 346 346 345 345 345 345 345 344 344 343 341 341 341 343 345 348 349 350 351 353
231 232 232 233 234 237 239 241 243 245 247 250 254 259 264 268 271 275 278 277 269 255 246 247 250 257 266 267 264 258 254 252 254 256 257 260 262 259 255 263 273 273 266 259 258 261 265 273 282 294 303 312 320 325 329 335 339 341 343 343 342 342 343 345 346 346 346 345 345 344 344 344 343 341 339 338 339 342 345 348 349 349 350 351 353
232 234 235 236 236 237 239 241 243 246 248 250 254 259 264 266 267 271 274 267 251 243 244 243 245 255 263 263 259 253 249 250 252 253 256 258 255 249 254 266 267 258 250 251 255 257 262 272 283 294 305 314 321 324 330 336 340 341 342 342 342 342 344 345 347 347 346 346 345 344 343 341 340 338 338 339 342 346 348 349 348 349 352 352 352
234 237 238 238 237 238 239 242 245 245 244 246 250 256 261 260 257 261 266 257 244 244 246 242 244 255 261 261 256 250 248 248 248 249 251 250 248 251 259 261 253 244 244 247 248 253 261 272 286 298 309 317 321 326 332 337 340 341 341 342 342 343 345 346 347 348 348 347 347 345 343 342 342 342 343 344 347 350 351 349 348 350 353 353 353
238 239 238 236 235 235 237 241 244 241 239 242 251 257 258 253 247 254 263 257 247 245 245 242 245 253 259 259 254 248 247 247 245 245 245 245 248 254 255 250 242 238 240 241 244 251 261 275 290 302 312 318 322 329 335 338 339 341 341 342 344 345 347 347 348 350 350 349 349 348 347 346 346 347 347 347 349 352 352 349 350 352 353 354 354
240 236 232 230 228 229 234 238 239 236 236 241 249 254 252 247 243 251 262 261 251 243 240 240 241 245 253 255 250 246 246 245 242 242 242 245 250 251 248 243 238 236 236 237 240 247 260 278 295 305 314 318 323 331 336 339 340 341 342 343 345 347 348 349 350 350 350 351 352 351 351 349 348 348 348 347 350 353 352 351 353 354 353 354 356
240 235 231 228 225 225 227 228 227 230 237 241 245 248 248 244 242 251 263 264 253 243 238 236 235 238 247 250 248 245 243 242 241 242 243 245 246 245 243 240 236 233 233 234 236 244 259 278 296 307 313 318 325 333 337 340 341 341 342 344 345 346 348 350 351 351 351 354 354 353 352 350 347 347 347 347 350 351 350 354 356 355 355 357 357
241 238 234 230 222 215 214 217 224 232 237 239 241 244 244 243 247 258 265 259 248 242 239 233 229 237 246 247 245 243 241 241 241 243 244 243 241 240 239 237 234 231 231 233 235 244 260 278 296 307 314 321 329 334 337 339 340 341 343 344 345 347 349 350 351 352 353 355 355 353 352 350 348 347 347 348 349 348 350 356 358 356 357 359 359
244 241 239 234 222 212 210 217 228 235 234 234 237 240 242 248 255 261 259 250 246 247 244 233 226 235 245 245 243 240 239 240 243 244 243 239 235 236 235 232 231 229 229 233 238 247 263 281 298 309 316 324 330 334 336 337 339 340 341 343 345 347 349 350 352 353 355 355 355 354 353 351 349 348 348 348 347 348 352 356 358 357 358 0 2
247 245 243 238 228 218 214 218 227 233 232 231 235 241 249 256 259 256 251 248 249 252 247 237 229 236 242 241 239 237 237 241 243 242 240 236 233 233 232 229 228 227 228 233 240 249 265 282 297 309 317 325 331 332 334 335 337 339 340 342 345 347 349 352 353 354 355 355 355 355 354 353 352 350 349 348 347 349 353 355 357 359 359 1 5
248 247 245 240 232 224 219 219 226 232 234 236 241 247 253 256 254 253 252 253 254 253 249 241 237 241 242 237 234 234 235 240 241 238 237 237 235 234 232 228 226 225 227 232 239 250 266 280 295 308 317 326 329 329 331 334 336 338 339 341 344 348 351 353 354 354 355 355 355 356 356 356 355 352 350 350 349 350 352 353 356 359 0 3 7
248 248 246 240 233 228 223 223 226 231 237 240 241 242 245 248 251 252 250 249 249 247 245 243 243 245 242 236 233 233 235 238 238 235 235 236 235 234 232 228 226 225 226 231 239 250 264 278 293 306 316 324 327 327 331 333 334 336 338 341 346 351 352 353 353 353 354 356 357 357 357 357 357 355 353 352 353 352 352 352 355 359 0 3 7
247 249 246 240 234 231 228 226 227 231 237 241 242 243 246 248 250 249 247 246 248 247 246 247 249 248 242 235 233 233 235 236 235 233 235 235 233 232 230 228 226 225 226 232 240 251 264 278 291 303 313 320 323 325 328 331 333 336 339 343 348 351 350 351 351 353 355 356 357 357 358 358 358 358 357 357 356 355 354 354 356 358 1 4 6
247 248 245 239 232 229 232 233 231 233 237 242 247 252 253 249 248 249 250 252 252 249 248 249 250 248 242 236 234 234 235 234 232 232 235 234 232 230 228 227 226 225 228 234 242 252 263 275 288 300 308 315 319 324 328 332 335 337 339 343 346 348 349 350 352 353 355 355 355 357 359 360 359 360 0 360 358 358 357 357 357 359 1 5 6
251 249 244 237 229 227 231 236 237 237 239 243 248 250 246 243 246 248 247 247 246 244 244 244 244 243 239 235 234 234 233 231 229 230 232 232 230 228 226 225 225 226 230 236 242 251 262 272 284 295 303 310 317 324 328 331 333 334 337 341 345 347 349 350 351 353 354 354 355 357 359 360 360 0 1 359 357 358 359 359 359 359 1 5 7
261 256 247 239 233 230 232 237 241 244 245 248 250 247 239 239 243 242 239 240 241 242 244 244 241 237 233 232 232 232 231 230 229 230 231 231 230 228 225 224 223 225 231 236 242 251 260 270 281 290 298 306 314 321 325 328 331 332 335 340 344 346 347 348 350 352 352 353 355 358 359 360 360 360 360 359 358 359 0 1 1 1 2 5 6
267 264 252 243 239 238 237 239 243 246 249 252 252 243 236 238 244 245 245 247 247 247 248 247 243 239 236 234 233 232 232 233 233 233 234 234 232 228 225 223 223 227 232 236 242 251 259 269 279 287 294 302 310 318 323 326 329 331 334 339 343 344 346 347 349 350 351 353 355 357 358 359 359 359 359 359 360 1 2 2 3 3 3 5 5
258 260 252 244 243 244 243 243 243 244 248 251 249 240 237 242 247 250 253 254 253 253 252 250 245 242 241 240 237 234 234 234 233 234 237 237 234 229 225 224 225 229 234 237 243 251 259 268 277 285 292 299 306 314 320 323 326 329 333 338 341 343 344 346 347 348 350 352 355 355 357 359 359 359 359 360 1 3 2 3 5 5 4 5 5
252 255 250 245 246 247 246 245 246 246 248 248 243 240 242 246 248 250 253 254 254 255 255 253 250 247 245 242 239 237 237 234 232 234 237 237 234 229 226 225 227 231 235 239 244 250 259 268 277 284 290 295 302 311 317 321 323 326 331 336 339 341 343 344 345 347 349 351 354 355 356 357 357 357 358 360 2 3 3 4 6 5 4 5 5
251 253 249 244 245 246 245 245 247 249 250 247 241 240 243 247 249 251 253 255 258 260 260 260 257 254 250 246 242 239 236 234 234 235 236 236 233 230 227 226 228 233 237 241 245 251 258 267 275 281 287 292 298 307 314 317 320 324 329 334 337 339 341 342 344 346 348 350 353 354 355 355 355 356 357 358 0 2 4 6 6 6 6 5 5
252 251 246 239 237 239 242 243 244 246 247 246 243 243 245 248 250 252 253 256 261 263 263 261 258 255 251 248 244 239 235 234 235 235 234 233 232 230 228 228 230 235 239 242 246 252 258 265 273 279 285 289 295 303 310 314 318 322 327 332 335 337 338 340 342 344 346 348 351 353 353 354 354 355 356 357 359 0 3 7 8 7 7 6 5
252 249 243 236 231 231 235 239 243 246 246 245 245 246 247 248 249 250 253 257 260 261 259 256 253 248 244 242 240 236 233 235 237 234 231 230 230 229 229 230 232 237 240 243 248 252 257 264 271 277 282 287 292 299 306 312 316 320 324 329 332 334 336 338 339 341 344 347 349 351 352 352 352 353 354 356 359 359 0 5 8 8 8 7 7
250 247 242 235 231 230 232 235 240 244 244 243 245 247 248 249 251 252 253 256 259 260 258 254 249 243 238 237 236 234 234 237 238 234 230 229 229 229 229 231 234 239 242 245 249 253 258 264 270 275 281 285 289 295 303 310 314 317 321 325 328 331 334 336 337 339 342 344 346 348 350 351 351 353 354 355 357 358 359 3 7 10 11 11 10
245 243 239 233 231 233 235 236 239 243 245 245 247 249 252 254 254 253 254 257 260 261 258 254 250 244 238 235 234 233 235 238 238 235 232 230 228 228 230 233 236 240 243 247 250 254 259 264 269 274 279 283 287 293 301 308 312 314 318 321 325 328 331 333 335 337 339 342 345 347 349 350 350 351 351 352 354 359 2 3 6 11 14 15 14
241 238 235 232 231 233 235 237 242 247 250 249 250 253 256 256 254 254 256 261 264 262 258 253 248 242 236 233 231 231 234 237 238 236 234 231 228 228 232 235 239 241 244 248 251 255 260 265 268 272 277 280 285 291 299 305 309 311 314 318 321 325 329 331 334 335 337 340 343 345 347 348 347 347 348 350 354 359 3 5 7 12 16 17 16
243 241 238 236 235 234 236 239 242 245 246 248 251 255 257 257 257 259 261 264 266 264 259 254 248 240 235 233 231 231 233 235 236 235 233 230 229 231 234 239 242 244 246 249 252 256 261 264 267 271 274 278 284 290 296 302 306 308 311 314 318 322 326 329 331 333 334 337 340 341 343 345 345 345 347 350 353 358 4 7 10 12 15 16 16
247 247 246 243 242 241 243 244 244 244 247 252 255 255 254 255 258 261 264 267 268 267 262 256 248 241 237 235 233 233 234 233 232 232 230 229 230 233 237 242 245 247 248 251 254 258 262 264 266 270 273 277 283 288 293 298 302 305 308 311 314 319 324 327 329 330 332 334 336 338 340 342 343 343 345 347 351 356 3 8 9 9 12 14 15
253 253 252 251 249 247 245 246 247 249 250 251 249 247 248 252 256 259 262 265 267 266 263 256 247 242 240 237 235 234 235 235 233 232 230 230 232 235 239 244 248 249 250 253 256 260 263 265 266 269 272 276 280 285 290 295 300 302 305 308 312 317 322 325 326 327 329 331 333 334 337 340 342 341 341 344 348 353 360 4 5 5 7 11 13
253 252 251 251 249 245 243 243 244 244 241 239 239 242 245 250 254 257 260 261 263 264 263 257 247 239 237 236 234 234 235 235 234 232 231 232 235 237 240 245 248 249 251 254 258 261 264 265 267 269 271 274 277 282 288 293 297 300 303 306 310 314 319 322 323 324 326 328 330 331 333 337 340 339 339 341 344 346 350 355 359 1 3 5 8
244 245 247 248 245 241 237 236 234 231 230 233 238 242 246 252 258 261 261 261 262 263 261 254 243 236 234 233 234 234 234 234 232 231 232 235 237 238 241 244 247 250 252 255 259 262 264 265 266 268 271 273 276 281 286 291 295 298 301 304 308 312 316 318 320 322 324 326 328 328 330 334 336 336 336 338 340 341 342 346 352 356 358 359 2
242 245 246 244 240 234 230 228 228 228 231 234 236 239 246 257 266 268 267 265 264 264 260 252 243 237 234 233 234 234 234 233 231 230 233 236 238 240 243 245 247 250 253 256 259 262 263 265 266 268 270 272 276 280 285 290 293 297 300 302 305 309 312 315 317 320 323 325 326 326 327 329 332 332 332 334 336 337 337 339 344 349 352 354 356
242 243 241 238 233 228 227 230 232 232 234 238 240 241 246 258 271 276 273 267 263 260 258 253 245 239 236 235 235 235 234 232 231 231 234 236 239 241 244 247 249 252 254 256 260 263 264 265 267 269 270 273 277 281 285 289 292 295 298 300 303 306 310 313 316 319 321 322 323 323 323 324 327 328 328 329 331 332 332 333 336 340 345 348 350
241 241 239 237 235 231 231 234 236 235 237 242 245 243 244 253 266 272 271 265 259 255 254 250 244 240 237 236 236 236 235 233 232 233 235 238 241 244 247 249 251 254 255 257 261 264 265 265 267 269 271 274 278 281 285 289 292 294 297 299 302 306 309 312 314 316 318 320 321 320 320 320 322 323 324 324 325 326 325 325 326 330 335 340 343
246 244 242 241 242 241 239 240 242 241 241 244 246 244 242 245 252 257 261 261 258 254 251 249 245 241 239 237 236 236 235 234 234 235 237 240 244 247 249 250 252 255 256 258 262 264 264 265 267 269 272 275 279 282 285 288 291 293 296 299 302 306 309 311 312 314 315 317 318 317 316 317 317 319 319 319 319 319 318 318 319 322 326 331 334
251 251 250 250 252 252 248 247 247 247 246 246 249 250 249 250 253 255 257 258 256 253 251 250 247 243 240 237 235 234 234 235 236 237 239 242 246 248 249 251 253 256 257 259 262 263 264 266 268 271 273 276 279 282 285 287 289 292 295 298 301 304 307 309 310 311 312 313 314 314 313 313 314 315 316 314 313 312 312 311 311 313 318 323 327
250 252 253 254 256 258 256 253 251 251 252 254 256 257 258 260 261 259 258 257 257 255 254 253 251 246 240 236 233 232 234 236 238 240 242 244 246 249 250 252 254 255 257 260 263 264 265 267 270 271 273 275 278 281 284 286 289 292 295 297 300 303 305 307 308 308 309 309 310 310 310 310 311 313 313 312 310 308 306 305 306 307 310 315 318
245 248 252 254 254 255 256 255 255 257 260 261 260 259 260 261 262 261 259 258 258 257 255 254 252 247 239 233 230 231 234 237 239 241 243 245 248 251 252 253 253 254 257 261 263 265 266 267 269 270 273 275 278 281 283 286 288 291 294 297 300 302 304 305 305 305 306 306 307 307 308 308 310 311 311 310 308 306 304 302 301 302 305 309 311
Height
3135 3136 3138 3139 3140 3141 3143 3144 3145 3146 3148 3149 3150 3150 3151 3152 3152 3153 3153 3154 3154 3154 3153 3153 3153 3153 3152 3152 3151 3151 3150 3150 3150 3149 3149 3149 3149 3148 3148 3147 3146 3146 3145 3144 3143 3142 3141 3141 3140 3139 3138 3137 3136 3134 3133 3131 3129 3128 3126 3124 3122 3121 3119 3117 3115 3113 3111 3108 3105 3102 3099 3095 3092 3089 3085 3081 3077 3073 3069 3065 3060 3055 3049 3044 3038
3133 3134 3136 3137 3138 3139 3141 3142 3143 3145 3146 3147 3148 3148 3149 3150 3151 3151 3151 3152 3152 3151 3151 3151 3151 3151 3150 3150 3149 3149 3148 3148 3148 3148 3147 3147 3147 3146 3146 3145 3145 3144 3143 3142 3141 3140 3139 3138 3138 3137 3136 3135 3134 3132 3131 3129 3128 3126 3124 3122 3121 3119 3117 3115 3113 3110 3108 3106 3103 3100 3096 3093 3089 3086 3082 3078 3074 3069 3065 3061 3056 3050 3045 3039 3034
3131 3132 3133 3135 3136 3137 3139 3140 3142 3143 3144 3145 3145 3146 3147 3148 3149 3149 3149 3150 3149 3149 3149 3149 3149 3148 3148 3147 3147 3147 3146 3146 3146 3146 3145 3145 3145 3144 3144 3143 3143 3142 3141 3140 3139 3138 3137 3137 3136 3135 3134 3133 3132 3130 3129 3128 3126 3125 3123 3121 3120 3118 3116 3113 3111 3108 3106 3103 3101 3097 3093 3090 3086 3082 3079 3075 3071 3066 3062 3057 3052 3046 3041 3036 3030
3128 3130 3131 3133 3134 3135 3137 3138 3139 3141 3142 3143 3143 3144 3145 3146 3146 3147 3147 3147 3147 3147 3147 3147 3147 3146 3146 3145 3145 3145 3144 3144 3144 3144 3143 3143 3142 3142 3142 3141 3141 3140 3139 3138 3137 3137 3136 3135 3134 3133 3132 3131 3130 3129 3128 3126 3125 3124 3122 3120 3119 3117 3114 3112 3110 3107 3104 3101 3098 3095 3090 3086 3083 3080 3076 3071 3067 3063 3058 3053 3048 3043 3037 3031 3025
3125 3127 3129 3130 3132 3133 3134 3136 3137 3138 3139 3140 3141 3142 3142 3143 3144 3144 3145 3145 3145 3145 3145 3145 3145 3144 3144 3143 3143 3143 3142 3142 3142 3142 3142 3141 3141 3140 3140 3139 3139 3138 3137 3136 3136 3135 3134 3133 3132 3131 3130 3129 3128 3127 3126 3125 3124 3123 3121 3119 3117 3115 3113 3111 3108 3105 3102 3099 3096 3092 3088 3083 3080 3077 3072 3068 3064 3060 3054 3049 3045 3039 3032 3026 3019
3123 3124 3126 3128 3129 3131 3132 3133 3135 3136 3137 3138 3138 3139 3140 3141 3141 3142 3143 3143 3143 3143 3143 3143 3143 3142 3142 3141 3141 3140 3140 3140 3140 3140 3140 3139 3139 3138 3138 3137 3137 3136 3135 3135 3134 3133 3132 3132 3131 3130 3129 3128 3127 3126 3125 3124 3123 3122 3120 3118 3116 3114 3112 3109 3107 3104 3101 3097 3093 3090 3086 3081 3077 3073 3069 3065 3061 3055 3049 3044 3041 3036 3028 3021 3015
3120 3122 3124 3125 3127 3128 3130 3131 3132 3133 3134 3135 3135 3136 3137 3138 3139 3140 3140 3141 3141 3141 3141 3141 3140 3140 3139 3139 3138 3138 3138 3138 3138 3138 3138 3137 3137 3136 3136 3135 3135 3134 3134 3133 3132 3132 3131 3130 3129 3129 3128 3127 3126 3125 3124 3123 3122 3120 3119 3117 3115 3112 3110 3108 3105 3102 3099 3095 3091 3087 3083 3079 3074 3070 3066 3063 3058 3053 3046 3040 3036 3031 3024 3017 3011
3118 3119 3121 3123 3124 3126 3127 3128 3130 3130 3131 3132 3133 3134 3135 3136 3137 3138 3138 3137 3137 3137 3138 3138 3138 3137 3137 3136 3136 3136 3136 3136 3136 3136 3136 3135 3135 3135 3134 3133 3133 3132 3132 3131 3131 3130 3130 3129 3128 3128 3127 3126 3125 3124 3123 3122 3120 3119 3117 3115 3113 3111 3108 3106 3103 3100 3097 3093 3089 3085 3081 3077 3072 3067 3063 3059 3054 3049 3044 3038 3032 3027 3020 3014 3008
3115 3117 3118 3120 3122 3123 3124 3126 3127 3128 3128 3129 3130 3131 3132 3134 3134 3134 3134 3134 3133 3134 3135 3135 3135 3135 3135 3134 3134 3134 3134 3134 3133 3133 3133 3133 3133 3133 3132 3131 3131 3131 3130 3130 3130 3129 3129 3128 3127 3126 3126 3125 3124 3123 3122 3120 3119 3117 3116 3114 3112 3109 3107 3104 3101 3099 3095 3091 3086 3082 3079 3075 3070 3065 3060 3056 3051 3046 3041 3036 3030 3024 3017 3011 3007
3112 3114 3116 3117 3119 3120 3122 3123 3124 3125 3126 3127 3127 3127 3129 3131 3131 3131 3131 3130 3130 3131 3131 3131 3131 3132 3132 3132 3132 3132 3131 3131 3131 3131 3131 3131 3131 3131 3130 3130 3129 3129 3129 3129 3128 3128 3127 3126 3126 3125 3124 3123 3123 3121 3120 3119 3117 3115 3114 3112 3110 3107 3105 3102 3100 3096 3093 3089 3084 3080 3077 3073 3068 3063 3057 3053 3049 3044 3039 3033 3027 3022 3015 3008 3003
3110 3111 3113 3115 3116 3118 3119 3120 3121 3122 3123 3124 3123 3123 3125 3126 3127 3128 3128 3127 3128 3128 3128 3127 3127 3129 3130 3130 3130 3129 3129 3129 3129 3129 3129 3129 3129 3129 3129 3128 3128 3128 3127 3127 3127 3126 3126 3125 3125 3124 3123 3122 3121 3120 3119 3117 3115 3113 3111 3109 3107 3105 3102 3100 3097 3094 3090 3087 3083 3079 3075 3071 3066 3061 3056 3051 3047 3042 3037 3031 3025 3020 3014 3006 2998
3107 3109 3110 3112 3114 3115 3117 3118 3119 3120 3120 3120 3119 3120 3122 3123 3124 3125 3125 3125 3125 3126 3126 3125 3123 3125 3127 3127 3127 3127 3127 3127 3127 3127 3128 3128 3128 3128 3127 3126 3126 3126 3126 3126 3126 3125 3125 3124 3124 3123 3122 3121 3120 3119 3118 3116 3114 3112 3110 3108 3106 3103 3101 3098 3095 3092 3088 3085 3082 3078 3073 3069 3065 3060 3054 3049 3044 3040 3035 3030 3025 3019 3013 3006 2998
3104 3106 3108 3110 3111 3113 3114 3115 3116 3117 3118 3118 3117 3119 3120 3121 3122 3122 3123 3123 3123 3124 3125 3125 3123 3123 3124 3125 3125 3125 3125 3125 3125 3126 3126 3127 3127 3126 3126 3125 3125 3125 3125 3125 3125 3124 3124 3123 3123 3122 3121 3120 3119 3118 3117 3115 3113 3111 3109 3107 3105 3103 3100 3098 3094 3091 3087 3083 3080 3076 3072 3068 3063 3058 3053 3047 3042 3038 3033 3029 3024 3017 3011 3005 2998
3102 3104 3106 3107 3109 3110 3111 3112 3114 3115 3116 3116 3116 3117 3118 3118 3119 3120 3121 3121 3121 3120 3122 3122 3121 3121 3121 3122 3123 3123 3123 3123 3124 3124 3125 3125 3125 3125 3124 3124 3124 3124 3124 3124 3124 3123 3123 3122 3122 3121 3120 3120 3118 3117 3116 3114 3113 3111 3109 3107 3105 3102 3100 3097 3093 3090 3086 3082 3078 3075 3071 3067 3062 3057 3052 3047 3042 3038 3033 3027 3021 3015 3009 3004 2997
3099 3101 3103 3104 3106 3107 3108 3109 3111 3112 3113 3114 3114 3115 3115 3116 3117 3118 3119 3119 3118 3118 3119 3120 3119 3119 3119 3120 3120 3120 3121 3121 3122 3122 3123 3123 3123 3123 3123 3123 3123 3122 3123 3123 3122 3122 3122 3121 3120 3120 3119 3119 3118 3116 3115 3114 3112 3110 3108 3106 3104 3102 3099 3096 3092 3089 3085 3081 3077 3073 3069 3065 3061 3056 3052 3048 3044 3039 3033 3026 3019 3013 3008 3002 2996
3096 3098 3100 3101 3103 3104 3105 3106 3107 3109 3110 3111 3111 3112 3113 3114 3115 3115 3116 3116 3115 3115 3116 3117 3117 3117 3117 3117 3118 3118 3119 3119 3120 3120 3121 3121 3121 3121 3121 3121 3121 3121 3121 3121 3121 3121 3120 3120 3119 3119 3118 3118 3117 3116 3115 3113 3112 3110 3108 3106 3104 3101 3098 3095 3092 3088 3084 3080 3076 3072 3068 3065 3061 3057 3054 3049 3044 3038 3032 3025 3019 3014 3007 2999 2992
3094 3095 3097 3098 3100 3101 3102 3103 3105 3106 3107 3108 3109 3109 3110 3111 3112 3112 3113 3112 3112 3113 3114 3114 3115 3115 3115 3115 3116 3116 3117 3117 3118 3118 3119 3119 3119 3119 3119 3119 3119 3119 3119 3119 3119 3119 3119 3119 3118 3118 3117 3117 3116 3115 3114 3112 3111 3109 3107 3105 3103 3100 3097 3094 3091 3087 3084 3080 3076 3072 3068 3065 3062 3058 3054 3049 3043 3036 3029 3023 3018 3012 3005 2997 2990
3091 3093 3094 3095 3097 3098 3099 3100 3102 3103 3104 3105 3106 3106 3107 3108 3109 3110 3110 3110 3110 3111 3111 3112 3112 3113 3113 3113 3114 3114 3115 3115 3116 3116 3117 3117 3117 3117 3117 3117 3117 3118 3118 3118 3118 3118 3118 3118 3117 3117 3116 3116 3115 3114 3112 3111 3109 3107 3106 3104 3101 3099 3096 3092 3089 3086 3083 3079 3075 3071 3067 3063 3060 3056 3051 3046 3041 3036 3029 3023 3017 3011 3004 2998 2990
3089 3090 3091 3092 3094 3095 3096 3098 3099 3100 3101 3102 3103 3103 3104 3105 3106 3107 3107 3107 3108 3108 3108 3109 3110 3110 3111 3112 3112 3112 3113 3113 3114 3115 3115 3115 3115 3115 3115 3116 3116 3116 3116 3117 3117 3117 3117 3116 3116 3115 3115 3114 3113 3112 3111 3109 3108 3106 3104 3102 3100 3097 3094 3090 3087 3083 3080 3076 3072 3068 3064 3060 3056 3052 3048 3044 3040 3036 3031 3025 3018 3011 3005 2999 2991
3085 3087 3087 3088 3090 3092 3093 3094 3096 3097 3098 3099 3100 3100 3101 3102 3103 3104 3104 3104 3105 3105 3105 3106 3107 3107 3108 3109 3110 3110 3111 3111 3112 3112 3113 3113 3113 3113 3114 3114 3114 3115 3115 3115 3115 3115 3115 3115 3115 3114 3113 3113 3112 3111 3109 3108 3106 3104 3102 3100 3097 3094 3092 3088 3085 3081 3078 3074 3069 3064 3060 3056 3052 3049 3046 3043 3039 3035 3032 3027 3020 3013 3006 2999 2993
3082 3083 3084 3085 3086 3087 3089 3091 3093 3094 3095 3096 3096 3097 3098 3099 3100 3101 3101 3102 3102 3102 3103 3103 3104 3105 3105 3106 3107 3108 3109 3109 3110 3110 3110 3110 3111 3111 3112 3112 3113 3113 3114 3114 3114 3114 3114 3113 3113 3113 3112 3111 3110 3109 3108 3106 3104 3102 3100 3098 3095 3092 3089 3086 3083 3079 3075 3071 3066 3062 3058 3055 3051 3048 3044 3041 3038 3034 3031 3026 3021 3015 3008 3000 2993
3079 3080 3081 3082 3082 3084 3086 3088 3090 3091 3091 3092 3093 3094 3095 3096 3097 3097 3098 3099 3099 3100 3100 3100 3101 3102 3103 3104 3105 3106 3107 3107 3108 3108 3108 3108 3109 3109 3110 3110 3111 3112 3112 3112 3112 3112 3112 3112 3112 3111 3111 3110 3108 3107 3106 3104 3103 3101 3099 3096 3094 3091 3088 3084 3081 3077 3073 3070 3066 3062 3058 3054 3050 3046 3042 3039 3036 3033 3029 3025 3021 3016 3010 3003 2995
3076 3077 3078 3079 3080 3081 3083 3085 3087 3087 3088 3089 3090 3091 3092 3093 3094 3094 3095 3096 3096 3097 3097 3098 3098 3099 3100 3101 3102 3103 3104 3105 3105 3106 3106 3106 3107 3107 3108 3109 3109 3110 3110 3111 3111 3111 3111 3110 3110 3110 3109 3108 3107 3105 3104 3103 3101 3099 3097 3095 3092 3089 3086 3083 3079 3076 3072 3068 3065 3061 3057 3053 3049 3044 3041 3037 3034 3031 3027 3023 3020 3016 3011 3005 2997
3074 3074 3075 3076 3077 3078 3080 3082 3083 3084 3085 3086 3087 3088 3089 3090 3091 3092 3093 3093 3094 3094 3095 3096 3096 3097 3098 3099 3100 3101 3102 3102 3103 3103 3104 3105 3105 3106 3106 3107 3107 3108 3108 3109 3109 3109 3109 3109 3109 3108 3107 3106 3105 3104 3103 3101 3100 3098 3096 3093 3091 3088 3085 3081 3078 3074 3071 3067 3064 3060 3056 3052 3048 3043 3039 3035 3032 3028 3025 3022 3019 3016 3011 3006 2999
3071 3071 3072 3073 3074 3075 3077 3079 3080 3081 3082 3083 3084 3086 3086 3087 3088 3089 3090 3091 3091 3092 3093 3094 3094 3094 3095 3096 3097 3098 3099 3100 3100 3101 3102 3103 3103 3104 3104 3105 3105 3106 3107 3107 3108 3108 3107 3107 3107 3107 3106 3105 3104 3103 3101 3100 3098 3096 3094 3092 3089 3086 3082 3079 3076 3073 3070 3067 3063 3059 3055 3051 3047 3042 3038 3034 3030 3026 3023 3021 3018 3014 3010 3006 3000
3068 3068 3069 3070 3071 3072 3074 3075 3077 3078 3079 3081 3082 3083 3084 3085 3086 3087 3087 3088 3089 3090 3090 3091 3092 3092 3093 3094 3094 3096 3096 3097 3098 3099 3100 3101 3101 3102 3103 3103 3104 3104 3105 3105 3106 3106 3106 3106 3105 3105 3104 3103 3103 3101 3100 3098 3097 3095 3093 3090 3087 3084 3081 3078 3076 3073 3069 3066 3061 3058 3054 3050 3046 3042 3038 3034 3030 3026 3022 3019 3015 3012 3008 3004 3000
3065 3065 3066 3067 3068 3070 3071 3073 3074 3076 3077 3078 3079 3080 3081 3082 3083 3084 3085 3085 3086 3087 3088 3089 3089 3090 3090 3091 3092 3093 3094 3095 3096 3096 3097 3099 3099 3100 3101 3101 3102 3103 3103 3104 3104 3104 3104 3104 3104 3103 3103 3102 3101 3100 3098 3097 3095 3093 3091 3088 3085 3082 3080 3078 3075 3071 3068 3064 3061 3057 3054 3050 3046 3042 3038 3033 3029 3026 3021 3017 3013 3010 3006 3002 2998
3062 3063 3064 3065 3066 3067 3069 3070 3071 3073 3074 3075 3076 3077 3078 3079 3080 3081 3082 3083 3083 3084 3085 3086 3087 3087 3088 3088 3090 3091 3092 3093 3094 3094 3095 3096 3097 3097 3098 3099 3100 3101 3101 3102 3102 3102 3102 3102 3102 3102 3101 3101 3100 3098 3097 3095 3093 3091 3089 3087 3084 3082 3079 3076 3073 3070 3067 3064 3060 3057 3053 3050 3046 3042 3037 3033 3030 3025 3021 3017 3013 3009 3006 3001 2997
3060 3061 3061 3062 3063 3065 3066 3067 3068 3070 3071 3072 3073 3074 3075 3076 3077 3078 3079 3080 3081 3082 3082 3083 3084 3085 3085 3086 3088 3089 3090 3090 3091 3092 3093 3094 3094 3095 3096 3097 3098 3099 3099 3100 3100 3100 3100 3100 3100 3100 3099 3099 3098 3097 3095 3094 3092 3090 3088 3086 3083 3081 3078 3076 3073 3070 3067 3063 3060 3056 3052 3049 3045 3041 3037 3034 3030 3025 3021 3017 3012 3009 3005 3002 2998
3058 3058 3059 3060 3061 3062 3063 3064 3065 3066 3068 3069 3070 3071 3072 3073 3074 3075 3076 3077 3078 3079 3080 3081 3081 3082 3082 3084 3085 3086 3087 3087 3088 3090 3091 3091 3092 3093 3094 3095 3096 3096 3097 3098 3098 3098 3098 3098 3098 3098 3098 3097 3096 3095 3094 3092 3091 3089 3087 3084 3082 3079 3077 3075 3072 3069 3066 3063 3059 3055 3052 3048 3045 3041 3038 3034 3030 3025 3021 3017 3013 3009 3005 3001 2998
3056 3056 3057 3057 3058 3059 3060 3062 3063 3064 3064 3066 3067 3068 3069 3070 3071 3072 3073 3074 3075 3076 3077 3077 3078 3078 3079 3081 3082 3083 3084 3085 3086 3087 3088 3089 3090 3091 3092 3093 3094 3094 3095 3095 3096 3096 3096 3096 3096 3096 3096 3095 3095 3093 3092 3091 3089 3087 3085 3083 3080 3078 3076 3074 3071 3068 3065 3062 3058 3055 3052 3048 3045 3041 3038 3034 3029 3025 3021 3017 3013 3010 3006 3002 2998
3053 3054 3054 3055 3055 3056 3057 3058 3059 3060 3061 3062 3064 3065 3066 3067 3068 3070 3071 3072 3072 3073 3073 3074 3075 3075 3077 3078 3079 3080 3081 3082 3084 3085 3086 3088 3088 3089 3090 3091 3092 3092 3093 3093 3094 3094 3094 3094 3094 3094 3094 3093 3093 3092 3090 3089 3087 3085 3083 3081 3079 3077 3075 3072 3070 3067 3064 3061 3058 3054 3051 3048 3045 3041 3037 3033 3029 3025 3021 3017 3013 3010 3006 3003 2999
3050 3051 3051 3052 3052 3053 3054 3055 3056 3057 3058 3060 3061 3062 3063 3065 3066 3067 3068 3069 3069 3069 3070 3071 3072 3073 3074 3075 3076 3077 3078 3080 3082 3083 3084 3085 3086 3086 3087 3088 3089 3090 3090 3091 3091 3092 3092 3092 3092 3092 3092 3091 3090 3090 3088 3087 3085 3084 3082 3079 3077 3075 3073 3071 3069 3066 3063 3060 3056 3053 3050 3047 3044 3041 3038 3034 3030 3026 3022 3018 3014 3010 3007 3003 3000
3047 3047 3048 3048 3049 3050 3051 3052 3053 3055 3056 3057 3058 3059 3061 3062 3063 3064 3065 3066 3066 3067 3067 3068 3069 3070 3071 3072 3074 3075 3076 3078 3079 3080 3081 3082 3083 3084 3085 3086 3086 3087 3088 3088 3089 3089 3089 3090 3090 3090 3090 3089 3088 3087 3086 3085 3083 3082 3080 3078 3076 3074 3072 3070 3067 3065 3062 3059 3056 3053 3050 3047 3044 3041 3037 3034 3031 3027 3023 3019 3015 3011 3007 3004 3001
3043 3044 3045 3045 3046 3047 3049 3050 3051 3052 3053 3054 3055 3057 3058 3059 3060 3061 3062 3063 3064 3064 3065 3065 3066 3067 3068 3070 3071 3072 3074 3075 3076 3077 3078 3079 3080 3081 3082 3083 3084 3084 3085 3086 3086 3087 3087 3087 3087 3087 3087 3087 3086 3085 3084 3083 3082 3080 3078 3076 3074 3073 3071 3068 3066 3064 3061 3058 3055 3053 3050 3047 3044 3041 3038 3035 3031 3028 3024 3020 3016 3012 3008 3005 3001
3040 3040 3041 3042 3043 3045 3046 3047 3048 3049 3050 3052 3053 3054 3055 3056 3057 3058 3059 3060 3060 3061 3061 3062 3063 3064 3065 3067 3068 3069 3070 3072 3073 3074 3075 3076 3077 3079 3080 3081 3081 3082 3082 3083 3084 3084 3084 3085 3085 3085 3085 3085 3084 3083 3082 3081 3080 3078 3076 3074 3073 3071 3069 3067 3065 3062 3059 3057 3054 3052 3049 3047 3044 3042 3039 3035 3032 3029 3025 3022 3019 3014 3010 3006 3002
3037 3037 3038 3039 3040 3042 3043 3044 3045 3046 3048 3049 3050 3051 3052 3053 3054 3055 3056 3056 3057 3057 3058 3058 3059 3060 3061 3062 3064 3066 3067 3069 3070 3071 3072 3073 3074 3076 3077 3078 3079 3079 3080 3081 3081 3081 3082 3082 3082 3083 3083 3082 3082 3081 3080 3079 3077 3076 3074 3073 3071 3069 3067 3065 3063 3061 3058 3056 3054 3051 3049 3046 3043 3040 3037 3035 3032 3030 3027 3023 3020 3017 3012 3008 3003
3034 3034 3035 3037 3038 3039 3040 3042 3043 3044 3045 3046 3047 3048 3049 3050 3051 3052 3052 3053 3053 3054 3054 3055 3056 3057 3058 3059 3061 3063 3064 3065 3066 3068 3069 3071 3072 3073 3074 3075 3075 3076 3077 3078 3078 3079 3079 3079 3080 3080 3080 3080 3079 3078 3078 3077 3075 3074 3072 3071 3069 3067 3065 3064 3061 3059 3057 3055 3052 3050 3047 3045 3042 3040 3037 3035 3033 3030 3027 3024 3021 3018 3014 3010 3006
3031 3032 3033 3034 3036 3037 3038 3039 3040 3041 3042 3043 3044 3045 3046 3047 3048 3048 3049 3049 3050 3050 3051 3051 3052 3053 3054 3056 3057 3059 3060 3061 3063 3065 3067 3068 3069 3070 3070 3071 3072 3073 3074 3075 3075 3076 3076 3077 3077 3077 3077 3077 3077 3076 3075 3074 3073 3072 3070 3069 3067 3065 3063 3062 3059 3057 3055 3053 3051 3048 3046 3044 3042 3040 3038 3035 3033 3030 3028 3025 3022 3018 3015 3011 3008
3029 3030 3031 3031 3033 3034 3035 3036 3037 3038 3039 3041 3041 3042 3043 3044 3045 3045 3046 3046 3047 3047 3047 3048 3049 3050 3050 3052 3054 3055 3057 3058 3060 3062 3063 3064 3065 3066 3067 3068 3070 3070 3071 3072 3072 3073 3074 3074 3074 3075 3075 3074 3074 3073 3073 3072 3071 3069 3068 3066 3065 3063 3061 3060 3058 3056 3054 3052 3050 3048 3046 3044 3042 3040 3037 3035 3033 3030 3028 3025 3022 3019 3016 3013 3010
3027 3028 3028 3029 3030 3031 3032 3033 3034 3035 3037 3038 3038 3039 3040 3041 3041 3042 3042 3042 3043 3044 3044 3045 3046 3046 3047 3049 3051 3053 3054 3055 3057 3058 3059 3060 3062 3063 3064 3065 3067 3067 3068 3069 3069 3070 3071 3071 3072 3072 3072 3071 3071 3070 3070 3069 3068 3067 3065 3064 3063 3061 3059 3057 3056 3054 3052 3050 3048 3047 3045 3043 3041 3038 3037 3035 3033 3031 3028 3025 3023 3021 3018 3015 3012
3025 3025 3026 3026 3027 3028 3029 3030 3031 3032 3033 3035 3036 3037 3038 3038 3038 3039 3039 3039 3040 3040 3041 3042 3043 3043 3045 3047 3049 3050 3051 3052 3054 3055 3056 3057 3058 3060 3061 3062 3064 3064 3065 3066 3066 3067 3067 3068 3068 3069 3069 3068 3068 3067 3067 3066 3065 3064 3063 3061 3060 3059 3057 3055 3054 3052 3050 3048 3047 3045 3043 3042 3040 3038 3036 3034 3032 3030 3028 3026 3024 3021 3019 3016 3013
3022 3022 3023 3023 3024 3025 3026 3027 3028 3029 3031 3032 3033 3034 3035 3035 3036 3036 3036 3036 3037 3037 3037 3038 3039 3040 3042 3044 3045 3046 3047 3049 3050 3052 3053 3054 3055 3057 3058 3059 3060 3061 3062 3063 3063 3064 3064 3065 3065 3065 3066 3065 3065 3064 3064 3063 3062 3061 3060 3058 3057 3056 3055 3053 3052 3050 3048 3047 3045 3043 3042 3040 3038 3036 3035 3033 3031 3030 3028 3026 3024 3021 3019 3017 3014
3019 3019 3020 3020 3021 3022 3023 3024 3026 3027 3028 3029 3030 3031 3032 3032 3033 3033 3033 3033 3034 3034 3034 3035 3035 3036 3037 3039 3040 3041 3043 3045 3047 3049 3050 3051 3052 3053 3055 3056 3057 3058 3059 3059 3060 3061 3061 3062 3062 3062 3062 3062 3062 3061 3061 3060 3059 3058 3057 3056 3054 3053 3052 3051 3050 3048 3047 3045 3043 3041 3040 3038 3037 3035 3033 3032 3030 3028 3027 3025 3023 3021 3019 3017 3015
3016 3017 3017 3018 3018 3019 3021 3022 3023 3024 3025 3026 3027 3028 3029 3029 3030 3031 3031 3031 3031 3031 3031 3031 3032 3032 3033 3035 3036 3038 3040 3042 3044 3045 3046 3047 3048 3050 3051 3053 3054 3055 3056 3056 3057 3057 3058 3058 3059 3059 3059 3059 3058 3058 3057 3057 3056 3055 3054 3053 3051 3050 3049 3048 3047 3046 3044 3043 3041 3039 3038 3036 3035 3033 3032 3030 3028 3027 3025 3024 3022 3020 3019 3017 3015
3014 3014 3015 3015 3016 3017 3018 3019 3020 3021 3022 3023 3024 3025 3026 3027 3027 3028 3028 3028 3027 3027 3028 3028 3029 3029 3030 3032 3033 3035 3037 3039 3040 3042 3043 3044 3045 3046 3048 3049 3050 3052 3052 3053 3053 3054 3055 3055 3055 3055 3056 3055 3055 3054 3054 3053 3053 3052 3051 3050 3048 3047 3046 3045 3044 3043 3042 3040 3039 3037 3036 3034 3033 3032 3030 3029 3027 3026 3024 3023 3021 3020 3018 3016 3014
3011 3012 3013 3013 3015 3015 3016 3017 3018 3018 3019 3020 3021 3022 3023 3023 3023 3024 3024 3024 3024 3024 3024 3025 3025 3026 3027 3028 3029 3032 3034 3036 3037 3038 3039 3040 3041 3043 3044 3046 3047 3048 3049 3049 3050 3051 3051 3052 3052 3052 3052 3052 3051 3051 3050 3050 3049 3048 3047 3046 3045 3044 3043 3042 3041 3040 3039 3038 3036 3035 3033 3032 3031 3030 3028 3026 3025 3024 3023 3021 3020 3019 3017 3015 3014
3009 3010 3011 3012 3013 3013 3013 3014 3014 3015 3015 3016 3017 3018 3019 3018 3019 3020 3020 3021 3021 3021 3021 3021 3022 3022 3023 3024 3026 3029 3031 3032 3033 3034 3035 3036 3038 3040 3041 3042 3044 3045 3045 3046 3046 3047 3047 3048 3048 3048 3048 3048 3047 3047 3047 3046 3046 3045 3044 3043 3042 3041 3040 3039 3038 3036 3035 3034 3033 3032 3031 3030 3028 3027 3026 3024 3023 3022 3020 3019 3018 3016 3015 3014 3012
3007 3008 3009 3009 3010 3010 3011 3011 3012 3012 3013 3014 3014 3015 3015 3015 3016 3016 3017 3017 3017 3017 3018 3018 3018 3019 3019 3020 3022 3025 3027 3028 3029 3030 3032 3033 3035 3036 3037 3039 3040 3041 3042 3042 3043 3043 3044 3044 3044 3044 3044 3044 3044 3043 3043 3043 3042 3041 3040 3039 3039 3038 3037 3036 3034 3033 3032 3031 3030 3029 3028 3027 3026 3024 3023 3022 3020 3019 3018 3017 3016 3014 3013 3012 3010
3005 3006 3006 3007 3007 3008 3008 3009 3009 3010 3010 3011 3012 3012 3012 3013 3013 3013 3013 3013 3013 3014 3014 3014 3015 3015 3015 3016 3018 3021 3023 3025 3026 3027 3029 3030 3031 3033 3034 3035 3036 3038 3038 3039 3039 3040 3040 3040 3040 3040 3040 3040 3040 3040 3039 3039 3038 3038 3037 3036 3035 3034 3033 3032 3031 3030 3028 3028 3027 3026 3025 3023 3022 3021 3020 3019 3017 3016 3015 3014 3013 3012 3011 3010 3008
3003 3003 3003 3004 3005 3005 3005 3006 3006 3007 3007 3008 3009 3009 3009 3009 3009 3009 3010 3010 3010 3011 3011 3011 3011 3011 3012 3013 3015 3017 3019 3021 3023 3024 3026 3027 3028 3029 3030 3032 3033 3034 3035 3035 3036 3036 3036 3036 3036 3036 3036 3036 3036 3036 3035 3035 3034 3034 3033 3032 3031 3030 3029 3028 3027 3026 3025 3024 3023 3022 3021 3020 3019 3018 3017 3016 3014 3013 3012 3011 3010 3009 3008 3007 3006